Location: Sungai Buloh
(3.1000°N, 113.0000°E)
Time: 20:01:49
(UTC+00:00)

CZ-3C R/B - Pass Details

Date: 12 January 2026
Orbit: 291 x 31871 km, 20.7° (Epoch: 10 February)

Event Time Altitude Azimuth Distance (km) Brightness Sun altitude
Rises 05:42:30 0° 269° (W) 13,864 8.1 60.4°
Reaches altitude 10° 05:53:59 10° 265° (W) 15,571 8.6 58.8°
Drops below altitude 10° 11:48:44 10° 246° (WSW) 30,661 10.9 -18.0°
Enters shadow 14:05:15 65° 254° (WSW) 2,420 3.9 -48.9°
